Location: Dvur Kralove nad Labem
(50.4330°N, 15.8170°E)
Time: 15:03:27
(UTC+02:00)

ISS - Pass Details

Date: 21 May 2018
Orbit: 402 x 407 km, 51.6° (Epoch: 24 May)

Event Time Altitude Azimuth Distance (km) Brightness Sun altitude
Rises 23:51:57 0° 258° (WSW) 2,316 0.1 -18.0°
Reaches altitude 10° 23:54:02 10° 259° (W) 1,457 -1.0 -18.0°
Maximum altitude 23:57:18 84° 348° (NNW) 410 -3.9 -18.2°
Drops below altitude 10° 00:00:34 10° 77° (ENE) 1,458 -1.0 -18.3°
Sets 00:02:39 0° 78° (ENE) 2,319 0.0 -18.4°
